Погода в Барлыке

Россия / Республика Тыва     51°08′09″N   90°32′28″E
темп.,
°C
ветер,
м/с
пор.,
м/с
влажн.,
%
обл.,
%
осадки,
мм/ч
давл.,
гПа
погр.,
м
26 февраля, пт
пт2601:00−14сз227063 0.0 102026
04:00−16сз336285 0.0 102326
07:00−20сз336591 0.0 102831
10:00−16сз4963100 0.0 1027877
13:00−15зсз694883 0.0 10291949
16:00−13сз575432 0.0 10291335
19:00−19ссз226166 0.0 103320
22:00−23с336691 0.0 103620
27 февраля, сб
сб2701:00−26ссз226861 0.0 103820
04:00−27ссз226943 0.0 103819
07:00−28ссз116970 0.0 103919
10:00−23в007087 0.0 103858
13:00−21юв217581 0.0 1035260
16:00−19юв117780 0.0 1034312
19:00−24с119178 0.0 103720
22:00−26ссз128445 0.0 103920
28 февраля, вс
вс2801:00−27ссз117522 0.0 104120
04:00−28ссз11720 0.0 104220
07:00−29ссз11710 0.0 104419
10:00−24юв117295 0.0 104340
13:00−21юв217887 0.0 1039207
16:00−19юв117936 0.0 1037235
19:00−24ссз119347 0.0 103820
22:00−24всв1191100 0.0 103920
1 марта, пн
пн101:00−23ссв0188100 0.0 103720
04:00−25всв0091100 0.0 103620
07:00−26ссз0090100 0.0 103520
10:00−22ююв1186100 0.0 103171
13:00−18юв1184100 0.0 1026212
16:00−16вюв2185100 0.0 1023198
19:00−21св119596 0.0 102320
22:00−21всв119599 0.0 102420
2 марта, вт
вт201:00−22всв119296 0.0 102320
04:00−19вюв1188100 0.0 102120
07:00−19юв1189100 0.0 102120
10:00−15юв1190100 0.0 102054
13:00−11юв228898 0.0 1018136
16:00−9юв2290100 0.0 1017109
19:00−13всв129299 0.0 101721
22:00−13в1189100 0.0 101820